Printer-friendly version

IAU Minor Planet Center

Minor Planet Center

MPEC 2006-Q52 : 2006 QE89

The following Minor Planet Electronic Circular may be linked-to from your own Web pages, but must not otherwise be redistributed electronically.


Read MPEC 2006-Q51 Read MPEC 2006-Q53


M.P.E.C. 2006-Q52                                Issued 2006 Aug. 30, 02:26 UT

     The Minor Planet Electronic Circulars contain information on unusual
         minor planets and routine data on comets.  They are published
   on behalf of Commission 20 of the International Astronomical Union by the
          Minor Planet Center, Smithsonian Astrophysical Observatory,
                          Cambridge, MA 02138, U.S.A.

                  Supported in part by the Brinson Foundation
                  Supported in part by the TABASGO Foundation
             Prepared using the Tamkin Foundation Computer Network

                              MPC@CFA.HARVARD.EDU
          URL http://cfa-www.harvard.edu/iau/mpc.html  ISSN 1523-6714

                                   2006 QE89

Observations:
     K06Q89E  C2006 08 14.29440 21 18 14.54 -12 10 03.8          17.2 R EQ052644
     K06Q89E  C2006 08 14.31527 21 18 07.45 -12 07 08.5          17.1 R EQ052644
     K06Q89E  C2006 08 14.33614 21 18 00.32 -12 04 13.4          17.2 R EQ052644
     K06Q89E* C2006 08 16.22316 21 07 08.64 -07 11 33.5          17.2 R EQ052644
     K06Q89E  C2006 08 16.23645 21 07 03.36 -07 09 17.5          17.3 R EQ052644
     K06Q89E  C2006 08 16.25100 21 06 57.56 -07 06 48.3          17.2 R EQ052644

Observer details:
644 Palomar Mountain/NEAT.  Observers M. Brown, R. Bambery, K. Lawrence,
    M. Hicks, E. Helin, R. Thicksten.  1.2-m Schmidt + CCD.

Orbital elements:
2006 QE89                                                Earth MOID = 0.0935 AU
Epoch 2006 Sept. 22.0 TT = JDT 2454000.5                MPC
M 352.68029              (2000.0)            P               Q
n   0.35855067     Peri.   75.73734     +0.77202212     -0.59181403
a   1.9623164      Node   319.79799     +0.34948515     +0.69989546
e   0.5671359      Incl.   21.04694     +0.53088791     +0.39987812
P   2.75           H   21.1           G   0.15           U   9
Residuals in seconds of arc
060814 644  0.1-  0.2-    060814 644  0.0   0.1-    060816 644  0.0   0.0
060814 644  0.1+  0.3+    060816 644  0.0   0.0     060816 644  0.0   0.0

Ephemeris:
2006 QE89                a,e,i = 1.96, 0.57, 21                  q = 0.8494
Date    TT    R. A. (2000) Decl.     Delta      r     Elong.  Phase     V
2006 08 23    20 09.06   +19 01.7    0.0995   1.087   137.8    38.7    17.8
2006 09 02    17 20.15   +56 32.4    0.123    1.013    88.3    84.8    19.5
2006 09 12    14 22.33   +62 06.0    0.192    0.948    66.9   102.4    21.1
2006 09 22    12 57.42   +58 26.3    0.272    0.896    59.2   105.7    22.0

Timothy B. Spahr             (C) Copyright 2006 MPC           M.P.E.C. 2006-Q52

Read MPEC 2006-Q51 Read MPEC 2006-Q53


Our Web policy. Index to the CBAT/MPC/ICQ pages.


Valid HTML 4.01!